Date String (YYYY-MM-DD hh:mm:ss) UTC,Instrument flags,absolute air pressure of the measurement (hPa),sample flow rate (lpm),inlet stack bypass flow (lpm),air temperature of the measurement (°C),ambient temperature measured by the external sensor (°C),aerosol sample conditioner tube jacket temperature (°C),OPC LED temperature (°C),internal box temperature (°C),relative humidity of the measurement (%),span deviation,mass concentration of particles derived from Lorenz-Mie calculation of OPC scattering (μg/m³),mass concentration of particles derived from Lorenz-Mie calculation of OPC scattering (μg/m³),mass concentration of particles derived from Lorenz-Mie calculation of OPC scattering (μg/m³)
DateTimeUTC,F1_M11,P_M11,Q1_M11,Q2_M11,T1_M11,T2_M11,T3_M11,T4_M11,T5_M11,U1_M11,ZSPAN_M11,X2_M11,X0_M11,X1_M11
2023-12-02 06:00:00,SystemResetWarning,0820.2,5.00,000.00,019.4,018.6,000.0,027.8,020.6,11.6,0000.0,0004.21,0009.59,0003.96
2023-12-02 06:01:00,SystemResetWarning,0820.2,5.00,000.00,019.4,018.6,000.0,027.8,020.7,11.8,0000.0,0004.87,0010.27,0004.54
2023-12-02 06:02:00,SystemResetWarning,0820.1,5.00,000.00,019.4,018.5,000.0,027.8,020.7,11.6,0000.0,0005.47,0010.58,0005.07
2023-12-02 06:03:00,SystemResetWarning,0820.0,5.00,000.00,019.4,018.5,000.0,027.8,020.6,11.0,0000.0,0005.93,0011.39,0005.47
2023-12-02 06:04:00,SystemResetWarning,0820.0,5.00,000.00,019.4,018.5,000.0,027.8,020.6,10.3,0000.0,0006.13,0011.67,0005.65
2023-12-02 06:05:00,SystemResetWarning,0820.0,5.00,000.00,019.4,018.5,000.0,027.8,020.6,10.2,0000.0,0006.22,0011.41,0005.75
2023-12-02 06:06:00,SystemResetWarning,0820.0,5.00,000.00,019.4,018.5,000.0,027.8,020.6,10.3,0000.0,0006.34,0011.55,0005.85
2023-12-02 06:07:00,SystemResetWarning,0820.1,5.00,000.00,019.4,018.5,000.0,027.8,020.6,10.7,0000.0,0006.53,0011.73,0006.06
2023-12-02 06:08:00,SystemResetWarning,0820.1,4.99,000.00,019.4,018.5,000.0,027.8,020.7,12.1,0000.0,0006.57,0011.42,0006.12
2023-12-02 06:09:00,SystemResetWarning,0820.0,4.99,000.00,019.4,018.5,000.0,027.8,020.6,12.2,0000.0,0006.54,0011.30,0006.08
2023-12-02 06:10:00,SystemResetWarning,0820.1,5.00,000.00,019.4,018.5,000.0,027.8,020.6,12.7,0000.0,0006.23,0010.38,0005.81
2023-12-02 06:11:00,SystemResetWarning,0820.1,5.01,000.00,019.4,018.5,000.0,027.8,020.6,13.1,0000.0,0005.81,0008.99,0005.45
2023-12-02 06:12:00,SystemResetWarning,0820.0,5.00,000.00,019.4,018.4,000.0,027.8,020.6,13.3,0000.0,0005.12,0008.09,0004.83
2023-12-02 06:13:00,SystemResetWarning,0820.1,5.00,000.00,019.3,018.4,000.0,027.7,020.5,11.9,0000.0,0004.50,0007.18,0004.29
2023-12-02 06:14:00,SystemResetWarning,0820.0,5.00,000.00,019.3,018.4,000.0,027.7,020.5,10.9,0000.0,0004.18,0006.12,0004.02
2023-12-02 06:15:00,SystemResetWarning,0820.0,5.00,000.00,019.3,018.4,000.0,027.7,020.6,12.0,0000.0,0004.41,0006.40,0004.25
2023-12-02 06:16:00,SystemResetWarning,0820.1,5.01,000.00,019.3,018.4,000.0,027.7,020.5,13.2,0000.0,0004.74,0007.11,0004.56
2023-12-02 06:17:00,SystemResetWarning,0820.0,5.00,000.00,019.3,018.4,000.0,027.7,020.5,13.0,0000.0,0005.21,0007.84,0004.97
2023-12-02 06:18:00,SystemResetWarning,0820.1,4.99,000.00,019.3,018.4,000.0,027.7,020.5,12.9,0000.0,0005.63,0008.41,0005.31
2023-12-02 06:19:00,SystemResetWarning,0820.1,5.00,000.00,019.3,018.4,000.0,027.7,020.5,13.4,0000.0,0006.01,0008.91,0005.62
2023-12-02 06:20:00,SystemResetWarning,0820.1,5.00,000.00,019.3,018.3,000.0,027.7,020.4,13.4,0000.0,0006.08,0008.97,0005.67
2023-12-02 06:21:00,SystemResetWarning,0820.1,5.00,000.00,019.3,018.3,000.0,027.7,020.4,13.4,0000.0,0006.08,0008.94,0005.67
2023-12-02 06:22:00,SystemResetWarning,0820.0,5.00,000.00,019.2,018.3,000.0,027.7,020.5,11.4,0000.0,0006.48,0009.48,0006.04
2023-12-02 06:23:00,SystemResetWarning,0820.2,4.99,000.00,019.2,018.3,000.0,027.7,020.5,11.5,0000.0,0007.16,0010.73,0006.64
2023-12-02 06:24:00,SystemResetWarning,0820.1,4.99,000.00,019.2,018.4,000.0,027.7,020.4,12.3,0000.0,0007.74,0011.41,0007.20
2023-12-02 06:25:00,SystemResetWarning,0820.1,5.01,000.00,019.2,018.3,000.0,027.6,020.4,12.5,0000.0,0008.27,0012.11,0007.68
2023-12-02 06:26:00,SystemResetWarning,0820.1,5.01,000.00,019.2,018.3,000.0,027.6,020.4,12.1,0000.0,0008.60,0012.61,0007.95
2023-12-02 06:27:00,SystemResetWarning,0820.0,5.00,000.00,019.2,018.3,000.0,027.6,020.4,12.1,0000.0,0008.91,0013.54,0008.21
2023-12-02 06:28:00,SystemResetWarning,0820.0,5.00,000.00,019.2,018.3,000.0,027.6,020.4,12.1,0000.0,0009.10,0013.92,0008.38
2023-12-02 06:29:00,SystemResetWarning,0820.1,4.99,000.00,019.2,018.3,000.0,027.6,020.4,12.3,0000.0,0008.70,0013.50,0008.05
2023-12-02 06:30:00,SystemResetWarning,0820.0,4.99,000.00,019.2,018.3,000.0,027.6,020.3,13.1,0000.0,0008.31,0013.23,0007.71
2023-12-02 06:31:00,SystemResetWarning,0820.0,5.00,000.00,019.1,018.3,000.0,027.6,020.2,13.4,0000.0,0008.41,0013.59,0007.81
2023-12-02 06:32:00,SystemResetWarning,0820.1,5.01,000.00,019.1,018.2,000.0,027.6,020.2,13.5,0000.0,0008.73,0014.00,0008.11
2023-12-02 06:33:00,SystemResetWarning,0820.1,5.01,000.00,019.1,018.2,000.0,027.6,020.1,13.7,0000.0,0008.76,0014.08,0008.11
2023-12-02 06:34:00,SystemResetWarning,0820.1,5.00,000.00,019.1,018.2,000.0,027.5,020.1,13.8,0000.0,0008.50,0013.36,0007.85
2023-12-02 06:35:00,SystemResetWarning,0820.1,5.00,000.00,019.1,018.1,000.0,027.5,020.2,13.9,0000.0,0008.30,0013.13,0007.65
2023-12-02 06:36:00,SystemResetWarning,0820.0,4.99,000.00,019.1,018.1,000.0,027.5,020.2,13.9,0000.0,0008.15,0012.82,0007.55
2023-12-02 06:37:00,SystemResetWarning,0820.1,4.99,000.00,019.1,018.1,000.0,027.5,020.2,13.6,0000.0,0008.04,0012.53,0007.48
2023-12-02 06:38:00,SystemResetWarning,0820.2,5.01,000.00,019.1,018.1,000.0,027.5,020.2,13.3,0000.0,0008.01,0012.01,0007.46
2023-12-02 06:39:00,SystemResetWarning,0819.9,5.01,000.00,019.1,018.2,000.0,027.5,020.2,13.4,0000.0,0007.93,0012.58,0007.42
2023-12-02 06:40:00,SystemResetWarning,0820.0,4.99,000.00,019.1,018.2,000.0,027.5,020.2,13.2,0000.0,0008.33,0013.01,0007.79
2023-12-02 06:41:00,SystemResetWarning,0820.1,4.99,000.00,019.1,018.2,000.0,027.5,020.2,13.1,0000.3,0008.80,0013.45,0008.22
2023-12-02 06:42:00,SystemResetWarning,0820.0,4.99,000.00,019.1,018.2,000.0,027.5,020.3,13.2,0001.0,0009.14,0013.94,0008.52
2023-12-02 06:43:00,SystemResetWarning,0820.1,5.00,000.00,019.1,018.2,000.0,027.5,020.3,13.0,0001.4,0009.39,0014.71,0008.72
2023-12-02 06:44:00,SystemResetWarning,0820.1,5.01,000.00,019.1,018.2,000.0,027.5,020.2,13.0,0001.4,0009.64,0015.07,0008.97
2023-12-02 06:45:00,SystemResetWarning,0820.1,5.01,000.00,019.0,018.2,000.0,027.5,020.2,13.0,0001.5,0009.82,0015.32,0009.16
2023-12-02 06:46:00,SystemResetWarning,0820.1,5.01,000.00,019.0,018.1,000.0,027.4,020.1,12.9,0001.7,0010.00,0015.52,0009.32
2023-12-02 06:47:00,SystemResetWarning,0820.0,5.00,000.00,019.0,018.1,000.0,027.4,020.1,12.9,0001.7,0010.20,0015.82,0009.47
2023-12-02 06:48:00,SystemResetWarning,0820.0,5.00,000.00,019.0,018.1,000.0,027.4,020.1,12.7,0001.5,0010.22,0016.26,0009.43
2023-12-02 06:49:00,SystemResetWarning,0820.1,5.00,000.00,019.0,018.0,000.0,027.4,020.1,12.3,0001.7,0010.18,0016.69,0009.37
2023-12-02 06:50:00,SystemResetWarning,0820.1,5.00,000.00,018.9,018.0,000.0,027.4,020.1,12.1,0002.0,0010.07,0015.86,0009.27
2023-12-02 06:51:00,SystemResetWarning,0820.0,5.00,000.00,018.9,018.0,000.0,027.4,020.1,12.1,0002.1,0009.91,0015.39,0009.12
2023-12-02 06:52:00,SystemResetWarning,0820.0,5.00,000.00,018.9,018.0,000.0,027.4,020.1,11.6,0002.5,0009.71,0015.15,0008.93
2023-12-02 06:53:00,SystemResetWarning,0820.0,5.00,000.00,018.9,018.0,000.0,027.4,020.1,11.1,0002.5,0009.41,0014.51,0008.68
2023-12-02 06:54:00,SystemResetWarning,0820.0,4.99,000.00,018.9,018.0,000.0,027.4,020.2,10.8,0002.7,0009.12,0014.02,0008.44
2023-12-02 06:55:00,SystemResetWarning,0819.8,5.00,000.00,018.9,018.0,000.0,027.4,020.1,11.4,0002.3,0008.86,0013.93,0008.18
2023-12-02 06:56:00,SystemResetWarning,0820.0,5.01,000.00,018.9,018.0,000.0,027.4,020.1,11.3,0002.7,0008.56,0013.51,0007.92
2023-12-02 06:57:00,SystemResetWarning,0819.9,5.01,000.00,018.9,018.0,000.0,027.3,020.1,11.5,0002.8,0008.23,0013.09,0007.64
2023-12-02 06:58:00,SystemResetWarning,0820.0,5.00,000.00,018.9,018.0,000.0,027.3,020.1,11.8,0002.4,0007.91,0012.64,0007.37
2023-12-02 06:59:00,SystemResetWarning,0819.9,5.00,000.00,018.9,018.0,000.0,027.3,020.1,12.0,0001.6,0007.52,0011.86,0007.02
